Volver al catálogo

STARLINK-32864

ActivoComunicacionesVLEO
NORAD 62862·PAYLOAD·🇺🇸 United States

Lanzado Feb 1, 2025 desde Vandenberg Space Force Base

Loading…

Próximos Pases (próximas 24 horas)

TLE

ActualizadoSource: CelesTrak SupGP

Época: Sep 14, 2026, 21:43 UTC

1 62862C 25022J   26257.90534722 -.00006622  00000+0 -19579-3 0  2577
2 62862  53.1590 327.6340 0001251  83.7697 266.3552 15.34372172    18

Sigue STARLINK-32864 en tiempo real con AllMySat

Download on the App Store